Location: Beetenbrück
(52.8113°N, 9.5946°E)
Time: 16:33:55
(UTC+00:00)

Cosmos 2369 Rocket - Pass Details

Date: 14 April 2026
Orbit: 829 x 850 km, 71.0° (Epoch: 8 May)

Event Time Altitude Azimuth Distance (km) Brightness Sun altitude
Rises 22:08:35 0° 325° (NW) 3,386 6.6 -25.6°
Reaches altitude 10° 22:11:07 10° 320° (NW) 2,447 5.5 -25.7°
Maximum altitude 22:16:24 44° 249° (WSW) 1,131 2.8 -26.0°
Enters shadow 22:16:48 44° 237° (WSW) 1,143 2.7 -26.0°
